NR0A-4 Weather Reports


time (UTC)temp
C
wind
direction
speed
KPH
gust
KPH
rain 1hr
cm
rain 24hr
cm
rain mn
cm
humidity
%
barometer
mb
20180123002108 -6 332 11.3 24.1 0.00 0.18 0.00 96 1010.7
20180123001606 -6 320 11.3 25.7 0.00 0.18 0.00 96 1010.8
20180123001106 -5 322 11.3 14.5 0.00 0.18 0.00 96 1010.6
20180123000606 -5 325 9.7 14.5 0.00 0.18 0.00 96 1010.5
20180123000106 -5 329 8.0 14.5 0.00 0.18 0.00 96 1010.3
20180122235610 -5 308 9.7 12.9 0.00 0.18 0.00 96 1010.0
20180122235110 -5 316 8.0 12.9 0.00 0.18 0.00 96 1010.0
20180122234610 -5 317 8.0 14.5 0.00 0.18 0.00 96 1009.8
20180122234110 -5 313 9.7 14.5 0.00 0.18 0.00 96 1009.5
20180122233610 -5 318 9.7 14.5 0.00 0.18 0.00 96 1009.4
20180122233110 -5 321 9.7 12.9 0.00 0.18 0.00 96 1009.4
20180122232610 -5 316 9.7 14.5 0.00 0.18 0.00 96 1009.2
20180122232110 -5 322 9.7 12.9 0.00 0.18 0.00 96 1009.1
20180122231610 -5 320 9.7 14.5 0.00 0.18 0.00 96 1009.0
20180122231110 -5 315 9.7 12.9 0.00 0.18 0.00 96 1008.8
20180122230610 -5 317 9.7 14.5 0.00 0.18 0.00 96 1008.6
20180122230110 -5 311 9.7 14.5 0.00 0.18 0.00 96 1008.5
20180122225610 -5 322 11.3 19.3 0.00 0.18 0.00 96 1008.4
20180122225110 -5 307 9.7 12.9 0.00 0.18 0.00 96 1008.3
20180122224610 -5 330 9.7 14.5 0.00 0.18 0.00 96 1008.2
20180122224110 -5 324 9.7 12.9 0.00 0.18 0.00 96 1008.1
20180122223610 -5 295 9.7 11.3 0.00 0.18 0.00 96 1008.0
20180122223110 -5 319 11.3 16.1 0.00 0.18 0.00 96 1008.0
20180122222610 -5 320 9.7 12.9 0.00 0.18 0.00 96 1007.7
20180122222110 -5 316 9.7 12.9 0.00 0.18 0.00 96 1007.6
20180122221610 -5 313 8.0 9.7 0.00 0.18 0.00 96 1007.5
20180122221110 -5 325 11.3 19.3 0.00 0.18 0.00 96 1007.2
20180122220610 -5 325 11.3 33.8 0.00 0.18 0.00 96 1007.1
20180122220110 -5 309 11.3 20.9 0.00 0.18 0.00 96 1007.0
20180122215610 -5 317 9.7 12.9 0.00 0.18 0.00 96 1006.9
20180122215110 -5 318 11.3 19.3 0.00 0.18 0.00 96 1006.7
20180122214610 -5 313 9.7 12.9 0.00 0.18 0.00 96 1006.6
20180122214110 -5 321 9.7 16.1 0.00 0.18 0.00 96 1006.4
20180122213609 -5 321 9.7 14.5 0.00 0.18 0.00 96 1006.4
20180122213109 -5 327 9.7 14.5 0.00 0.18 0.00 96 1006.3
20180122212609 -5 317 8.0 11.3 0.00 0.18 0.00 96 1006.2
20180122212109 -5 316 11.3 14.5 0.00 0.18 0.00 96 1006.1
20180122211609 -5 333 11.3 14.5 0.00 0.18 0.00 96 1006.1
20180122211109 -5 323 9.7 12.9 0.00 0.18 0.00 96 1005.8
20180122210609 -5 330 9.7 14.5 0.00 0.18 0.00 97 1005.8
20180122210109 -5 318 9.7 12.9 0.00 0.18 0.00 96 1005.6
20180122205609 -5 311 9.7 12.9 0.00 0.18 0.00 96 1005.6
20180122205109 -5 309 9.7 12.9 0.00 0.18 0.00 96 1005.5
20180122204609 -5 326 9.7 16.1 0.00 0.18 0.00 96 1005.4
20180122204109 -5 317 9.7 14.5 0.00 0.18 0.00 96 1005.2
20180122203609 -5 320 11.3 14.5 0.00 0.18 0.00 97 1005.1
20180122203109 -5 316 11.3 16.1 0.00 0.18 0.00 96 1005.0
20180122202608 -5 316 8.0 9.7 0.00 0.18 0.00 97 1004.8
20180122202108 -5 319 9.7 14.5 0.00 0.18 0.00 96 1004.6
20180122201607 -5 324 9.7 14.5 0.00 0.18 0.00 97 1004.6
20180122201108 -5 326 9.7 11.3 0.00 0.18 0.00 97 1004.5
20180122200608 -5 323 9.7 14.5 0.00 0.18 0.00 97 1004.4
20180122200107 -5 324 11.3 19.3 0.00 0.18 0.00 97 1004.3
20180122195607 -5 329 9.7 14.5 0.00 0.18 0.00 97 1004.0
20180122195107 -5 323 9.7 14.5 0.00 0.18 0.00 97 1003.9
20180122194606 -5 318 9.7 14.5 0.00 0.18 0.00 97 1003.9
20180122194106 -5 333 11.3 16.1 0.00 0.18 0.00 97 1003.8
20180122193606 -5 310 9.7 11.3 0.00 0.18 0.00 97 1003.8
20180122193106 -5 322 11.3 16.1 0.00 0.18 0.00 97 1003.7
20180122192606 -5 317 9.7 16.1 0.00 0.18 0.00 97 1003.6
20180122192111 -5 323 11.3 12.9 0.00 0.18 0.00 97 1003.5
20180122191611 -5 311 9.7 12.9 0.00 0.18 0.00 97 1003.5
20180122191111 -5 322 11.3 19.3 0.00 0.18 0.00 97 1003.5
20180122190611 -5 318 8.0 12.9 0.00 0.18 0.00 97 1003.5
20180122190110 -5 327 11.3 25.7 0.00 0.18 0.00 97 1003.5
20180122185610 -5 319 9.7 12.9 0.00 0.18 0.00 97 1003.5
20180122185110 -5 318 11.3 14.5 0.00 0.18 0.00 97 1003.4
20180122184610 -5 310 11.3 12.9 0.00 0.18 0.00 97 1003.3
20180122184110 -5 301 9.7 14.5 0.00 0.18 0.00 97 1003.3
20180122183610 -5 314 11.3 16.1 0.00 0.18 0.00 97 1003.2
20180122183110 -5 326 11.3 16.1 0.00 0.18 0.00 97 1003.1
20180122182610 -5 333 11.3 19.3 0.00 0.18 0.00 97 1003.1
20180122182110 -5 317 11.3 16.1 0.00 0.18 0.00 97 1003.0
20180122181610 -5 311 11.3 20.9 0.00 0.18 0.00 96 1003.0
20180122181110 -5 308 11.3 25.7 0.00 0.18 0.00 97 1003.0
20180122180610 -5 310 9.7 16.1 0.00 0.18 0.00 97 1003.1
20180122175845 -5 329 12.9 16.1 0.00 0.18 0.00 97 1002.9
20180122175345 -5 324 9.7 14.5 0.00 0.18 0.00 97 1003.0
20180122174845 -5 319 11.3 22.5 0.00 0.18 0.00 97 1003.2
20180122174345 -5 317 12.9 22.5 0.00 0.18 0.00 97 1003.1
20180122173845 -5 318 12.9 24.1 0.00 0.18 0.00 96 1003.2
20180122173345 -5 320 11.3 22.5 0.00 0.18 0.00 97 1003.1
20180122172845 -5 318 9.7 19.3 0.00 0.18 0.00 97 1003.2
20180122172345 -5 319 11.3 14.5 0.00 0.18 0.00 97 1003.1
20180122171845 -5 327 12.9 22.5 0.00 0.18 0.00 97 1003.3
20180122171345 -5 314 9.7 12.9 0.00 0.18 0.00 97 1003.3
20180122170845 -5 311 11.3 16.1 0.00 0.18 0.00 97 1003.3
20180122170345 -5 318 9.7 24.1 0.00 0.18 0.00 97 1003.3
20180122165845 -5 323 9.7 14.5 0.00 0.18 0.00 97 1003.4
20180122165345 -5 325 9.7 16.1 0.00 0.18 0.00 97 1003.2
20180122164845 -5 308 12.9 16.1 0.00 0.18 0.00 97 1003.2
20180122164345 -5 321 9.7 19.3 0.00 0.18 0.00 96 1003.1
20180122163845 -5 325 11.3 16.1 0.00 0.18 0.00 97 1003.3
20180122163345 -5 319 11.3 16.1 0.00 0.18 0.00 97 1003.3
20180122162844 -5 324 12.9 22.5 0.00 0.18 0.00 97 1003.3
20180122162343 -5 309 12.9 14.5 0.00 0.18 0.00 97 1003.2
20180122161844 -5 311 12.9 16.1 0.00 0.18 0.00 97 1003.1
20180122161343 -5 321 14.5 25.7 0.00 0.18 0.00 97 1003.0
20180122160843 -5 310 12.9 22.5 0.00 0.18 0.00 97 1002.8
20180122160343 -5 318 11.3 11.3 0.00 0.18 0.00 97 1002.8
20180122155843 -5 315 11.3 19.3 0.00 0.18 0.00 97 1002.7
20180122155343 -5 329 12.9 27.4 0.00 0.18 0.00 97 1002.6
20180122154843 -5 310 14.5 25.7 0.00 0.18 0.00 97 1002.6
20180122154343 -5 328 12.9 19.3 0.00 0.18 0.00 97 1002.6
20180122153843 -5 315 11.3 14.5 0.00 0.18 0.00 97 1002.7
20180122153343 -5 323 16.1 33.8 0.00 0.18 0.00 97 1002.9
20180122152843 -5 309 11.3 19.3 0.00 0.18 0.00 97 1002.8
20180122152343 -5 326 11.3 14.5 0.00 0.18 0.00 97 1002.8
20180122151843 -5 318 12.9 20.9 0.00 0.18 0.00 97 1002.8
20180122151343 -5 320 9.7 16.1 0.00 0.18 0.00 97 1002.8
20180122150843 -5 339 11.3 19.3 0.00 0.18 0.00 97 1003.0
20180122150343 -5 322 9.7 12.9 0.00 0.18 0.00 97 1002.8
20180122145843 -5 320 12.9 25.7 0.00 0.18 0.00 97 1002.8
20180122145343 -5 310 11.3 16.1 0.00 0.18 0.00 97 1002.5
20180122144842 -5 314 11.3 16.1 0.00 0.18 0.00 97 1002.2
20180122144342 -4 314 11.3 12.9 0.00 0.18 0.00 97 1002.2
20180122143842 -4 323 12.9 35.4 0.00 0.18 0.00 97 1002.0
20180122143342 -4 311 12.9 24.1 0.00 0.18 0.00 97 1001.9
20180122142842 -4 327 11.3 20.9 0.00 0.18 0.00 97 1001.6
20180122142342 -4 314 14.5 25.7 0.00 0.18 0.00 97 1001.4
20180122141842 -4 310 11.3 19.3 0.00 0.18 0.00 97 1001.0
20180122141342 -3 305 12.9 20.9 0.00 0.18 0.00 98 1000.9
20180122140842 -3 315 12.9 22.5 0.00 0.18 0.00 97 1000.5
20180122140342 -3 315 12.9 19.3 0.00 0.18 0.00 97 1000.8
20180122135842 -3 293 11.3 22.5 0.00 0.18 0.00 97 1001.0
20180122135342 -3 321 16.1 25.7 0.00 0.18 0.00 98 1000.7
20180122134842 -3 311 12.9 19.3 0.00 0.18 0.00 97 1000.5
20180122134342 -3 319 16.1 29.0 0.00 0.18 0.00 97 1000.8
20180122133842 -3 333 14.5 24.1 0.00 0.18 0.00 97 1000.5
20180122133342 -3 328 11.3 20.9 0.00 0.18 0.00 97 1000.5
20180122132842 -3 322 14.5 24.1 0.00 0.18 0.00 97 1000.5
20180122132342 -2 321 12.9 32.2 0.00 0.18 0.00 97 1000.4
20180122131842 -2 336 12.9 38.6 0.00 0.18 0.00 97 1000.4
20180122131346 -2 334 19.3 49.9 0.00 0.18 0.00 97 1000.7
20180122130846 -2 320 12.9 32.2 0.00 0.18 0.00 96 1000.7
20180122130346 -1 316 16.1 32.2 0.00 0.18 0.00 96 1000.2
20180122125846 -1 332 16.1 45.1 0.00 0.18 0.00 96 1000.3
20180122125346 -1 329 16.1 40.2 0.00 0.18 0.00 97 1000.4
20180122124846 -1 323 16.1 29.0 0.00 0.18 0.00 97 1000.5
20180122124346 -1 324 20.9 40.2 0.00 0.18 0.00 97 1000.5
20180122123846 -1 330 14.5 29.0 0.00 0.18 0.00 97 1000.7
20180122123346 -1 330 16.1 35.4 0.00 0.18 0.00 97 1000.7
20180122122845 -1 326 16.1 24.1 0.00 0.18 0.00 97 1000.7
20180122122345 -1 337 12.9 22.5 0.00 0.18 0.00 97 1000.7
20180122121845 -1 331 16.1 38.6 0.00 0.18 0.00 96 1000.5
20180122121345 -1 328 11.3 22.5 0.00 0.18 0.00 96 1000.7
20180122120845 -1 324 12.9 20.9 0.00 0.18 0.00 96 1000.8
20180122120345 -1 315 9.7 29.0 0.00 0.18 0.00 96 1000.9
20180122115845 -1 337 12.9 33.8 0.00 0.18 0.00 96 1000.9
20180122115345 -1 345 16.1 33.8 0.00 0.18 0.00 96 1000.8
20180122114845 -1 348 14.5 38.6 0.00 0.18 0.00 96 1000.7
20180122114345 -1 314 14.5 32.2 0.00 0.18 0.00 96 1000.5
20180122113845 -1 351 12.9 29.0 0.00 0.18 0.00 96 1000.7
20180122113345 -1 344 14.5 25.7 0.00 0.18 0.00 95 1000.7
20180122112845 -1 326 14.5 41.8 0.00 0.18 0.00 95 1000.7
20180122112345 -1 346 12.9 27.4 0.00 0.18 0.00 95 1000.9
20180122111845 -1 327 14.5 25.7 0.00 0.18 0.00 95 1000.9
20180122111345 -1 336 14.5 37.0 0.00 0.18 0.00 95 1000.8
20180122110845 -1 328 16.1 29.0 0.00 0.18 0.00 95 1000.7
20180122110345 -1 1 16.1 38.6 0.00 0.18 0.00 95 1000.7
20180122105845 -1 327 16.1 25.7 0.00 0.18 0.00 95 1000.9
20180122105345 -1 341 11.3 29.0 0.00 0.18 0.00 95 1001.0
20180122104845 -1 344 12.9 19.3 0.00 0.18 0.00 95 1000.8
20180122104345 -1 336 11.3 24.1 0.00 0.18 0.00 94 1000.8
20180122103845 -1 341 14.5 35.4 0.00 0.18 0.00 94 1000.8
20180122103345 -1 322 12.9 24.1 0.00 0.18 0.00 94 1000.8
20180122102845 -1 8 11.3 19.3 0.00 0.18 0.00 94 1000.8
20180122102345 -1 356 12.9 19.3 0.00 0.18 0.00 94 1000.8
20180122101845 -1 6 14.5 32.2 0.00 0.18 0.00 94 1000.8
20180122101344 -1 334 11.3 25.7 0.00 0.18 0.00 94 1000.9
20180122100844 -1 345 12.9 20.9 0.00 0.18 0.00 94 1000.8
20180122100344 -1 6 8.0 12.9 0.00 0.18 0.00 93 1000.8
20180122095844 -1 323 11.3 25.7 0.00 0.18 0.00 93 1001.0
20180122095343 -1 329 9.7 25.7 0.00 0.18 0.00 92 1001.2
20180122094844 -1 8 11.3 22.5 0.00 0.18 0.00 92 1001.1
20180122094344 -1 3 11.3 29.0 0.00 0.18 0.00 92 1001.1
20180122093844 -1 0 16.1 32.2 0.00 0.18 0.00 92 1001.1
20180122093344 -1 11 14.5 29.0 0.00 0.18 0.00 91 1001.3
20180122092843 -1 354 12.9 33.8 0.00 0.18 0.00 91 1001.3
20180122092342 -1 339 12.9 37.0 0.00 0.18 0.00 91 1001.2
20180122091842 -1 341 11.3 38.6 0.00 0.18 0.00 91 1001.3
20180122091342 0 8 11.3 25.7 0.00 0.18 0.00 91 1001.6
20180122090842 0 326 14.5 32.2 0.00 0.18 0.00 91 1001.6
20180122090343 0 341 12.9 33.8 0.00 0.18 0.00 91 1001.7
20180122085842 0 349 8.0 24.1 0.00 0.18 0.00 91 1001.7
20180122085342 0 351 14.5 32.2 0.00 0.18 0.00 91 1002.0
20180122084842 0 353 11.3 29.0 0.00 0.18 0.00 91 1002.3
20180122084342 0 332 12.9 20.9 0.00 0.18 0.00 90 1002.6
20180122083842 0 15 11.3 32.2 0.00 0.18 0.00 90 1002.9
20180122083342 0 340 8.0 37.0 0.00 0.18 0.00 90 1002.9
20180122082842 0 337 12.9 25.7 0.00 0.18 0.00 91 1003.2
20180122082342 0 9 9.7 20.9 0.00 0.18 0.00 90 1003.2
20180122081842 0 342 12.9 25.7 0.00 0.18 0.00 90 1003.3
20180122081342 0 353 9.7 22.5 0.00 0.18 0.00 90 1003.5
20180122080842 0 0 11.3 20.9 0.00 0.18 0.00 90 1003.6
20180122080342 0 314 9.7 14.5 0.00 0.18 0.00 90 1003.6
20180122075842 0 0 8.0 25.7 0.00 0.18 0.00 90 1003.8
20180122075342 0 16 9.7 25.7 0.00 0.18 0.00 90 1003.8
20180122074842 0 19 8.0 20.9 0.00 0.18 0.00 90 1003.7
20180122074342 0 350 14.5 25.7 0.00 0.18 0.00 90 1003.7
20180122073842 0 19 12.9 20.9 0.00 0.18 0.00 90 1004.0
20180122073342 0 347 11.3 22.5 0.00 0.18 0.00 90 1004.0
20180122072842 0 20 4.8 25.7 0.00 0.18 0.00 90 1004.1
20180122072342 0 323 12.9 19.3 0.00 0.18 0.00 90 1004.3
20180122071842 0 12 14.5 24.1 0.00 0.18 0.00 91 1004.4
20180122071342 0 359 16.1 29.0 0.00 0.18 0.00 91 1004.1
20180122070842 0 17 9.7 22.5 0.00 0.18 0.00 91 1004.1
20180122070342 0 350 11.3 20.9 0.00 0.18 0.00 92 1004.0
20180122065842 0 348 11.3 32.2 0.00 0.18 0.00 92 1004.0
20180122065342 0 3 14.5 20.9 0.00 0.18 0.00 92 1004.4
20180122064842 0 11 4.8 12.9 0.00 0.18 0.00 92 1004.7
20180122064346 0 351 11.3 14.5 0.00 0.18 0.00 92 1005.1
20180122063846 0 7 8.0 19.3 0.00 0.18 0.00 92 1005.0
20180122063346 0 326 8.0 11.3 0.00 0.18 0.00 92 1005.2
20180122062846 0 6 9.7 19.3 0.00 0.18 0.00 92 1005.2
20180122062346 0 4 4.8 20.9 0.00 0.18 0.00 92 1005.2
20180122061846 0 37 8.0 24.1 0.00 0.18 0.00 92 1005.3
20180122061346 0 274 4.8 9.7 0.00 0.18 0.00 93 1005.3
20180122060846 0 356 8.0 19.3 0.00 0.18 0.00 93 1005.3
20180122060346 0 41 9.7 12.9 0.00 0.18 0.00 93 1005.2
20180122055846 0 14 9.7 20.9 0.00 0.18 0.18 93 1005.0
20180122055346 0 18 9.7 19.3 0.00 0.18 0.18 93 1004.9
20180122054846 0 22 12.9 24.1 0.00 0.18 0.18 93 1004.9
20180122054346 0 30 12.9 20.9 0.00 0.18 0.18 93 1005.1
20180122053846 0 26 12.9 22.5 0.00 0.18 0.18 93 1005.2
20180122053346 0 17 12.9 29.0 0.00 0.18 0.18 93 1005.3
20180122052846 0 22 12.9 25.7 0.00 0.18 0.18 93 1005.4
20180122052346 0 23 11.3 20.9 0.03 0.18 0.18 93 1005.6
20180122051846 0 20 9.7 14.5 0.03 0.18 0.18 93 1005.7
20180122051345 0 18 19.3 33.8 0.03 0.18 0.18 94 1005.6
20180122050845 0 21 14.5 27.4 0.03 0.18 0.18 94 1005.7
20180122050345 0 23 11.3 27.4 0.05 0.18 0.18 94 1005.8
20180122045845 0 355 14.5 24.1 0.05 0.18 0.18 94 1005.9
20180122045344 0 12 11.3 16.1 0.05 0.18 0.18 94 1005.7
20180122044844 0 4 14.5 35.4 0.08 0.18 0.18 94 1005.7
20180122044344 0 13 12.9 22.5 0.10 0.18 0.18 94 1005.9
20180122043844 0 40 9.7 24.1 0.10 0.18 0.18 93 1006.3
20180122043344 0 18 11.3 27.4 0.13 0.18 0.18 93 1006.4
20180122042844 0 21 11.3 22.5 0.13 0.18 0.18 93 1006.5
20180122042344 0 38 14.5 16.1 0.10 0.15 0.15 94 1006.5
20180122041844 0 29 9.7 16.1 0.10 0.15 0.15 93 1006.7
20180122041344 0 39 12.9 20.9 0.13 0.15 0.15 93 1006.6
20180122040844 0 37 11.3 20.9 0.13 0.15 0.15 93 1006.6
20180122040344 0 28 12.9 22.5 0.10 0.13 0.13 93 1006.6
20180122035844 0 19 9.7 14.5 0.10 0.13 0.13 93 1006.7
20180122035344 0 50 9.7 14.5 0.10 0.13 0.13 93 1006.8
20180122034843 0 32 11.3 20.9 0.08 0.10 0.10 93 1006.9
20180122034343 0 25 12.9 22.5 0.05 0.08 0.08 92 1006.8
20180122033847 0 19 16.1 25.7 0.05 0.08 0.08 92 1006.8
20180122033347 0 356 12.9 14.5 0.03 0.05 0.05 92 1006.8
20180122032847 0 26 11.3 19.3 0.03 0.05 0.05 92 1006.9
20180122032347 0 13 11.3 33.8 0.03 0.05 0.05 92 1006.8
20180122031847 0 21 12.9 22.5 0.03 0.05 0.05 92 1006.9
20180122031347 0 14 14.5 20.9 0.00 0.03 0.03 92 1006.8
20180122030847 0 18 16.1 24.1 0.00 0.03 0.03 92 1006.5
20180122030347 0 6 12.9 22.5 0.00 0.03 0.03 92 1006.5
20180122025847 0 14 12.9 27.4 0.00 0.03 0.03 92 1006.4
20180122025347 0 38 11.3 24.1 0.00 0.03 0.03 92 1006.3
20180122024847 0 15 14.5 24.1 0.03 0.03 0.03 92 1006.3
20180122024347 0 8 16.1 25.7 0.03 0.03 0.03 92 1006.2
20180122023847 0 353 11.3 22.5 0.03 0.03 0.03 92 1005.9
20180122023347 0 26 14.5 24.1 0.03 0.03 0.03 92 1005.5
20180122022847 0 26 14.5 35.4 0.03 0.03 0.03 92 1005.8
20180122022346 0 23 11.3 24.1 0.03 0.03 0.03 91 1006.1
20180122021846 0 355 11.3 25.7 0.03 0.03 0.03 91 1006.7
20180122021346 0 23 11.3 14.5 0.03 0.03 0.03 91 1007.2
20180122020846 0 26 9.7 19.3 0.03 0.03 0.03 90 1007.3
20180122020346 0 27 9.7 19.3 0.03 0.03 0.03 90 1007.4
20180122015846 0 23 11.3 29.0 0.03 0.03 0.03 90 1007.7
20180122015346 0 27 14.5 24.1 0.03 0.03 0.03 89 1008.1
20180122014846 0 26 8.0 19.3 0.00 0.00 0.00 88 1008.2
20180122014346 0 358 11.3 20.9 0.00 0.00 0.00 87 1008.1
20180122013846 0 28 9.7 25.7 0.00 0.00 0.00 86 1008.2
20180122013346 0 13 11.3 22.5 0.00 0.00 0.00 86 1008.3
20180122012845 1 14 11.3 27.4 0.00 0.00 0.00 86 1008.3
20180122012345 1 26 12.9 22.5 0.00 0.00 0.00 85 1008.3
20180122011845 1 24 11.3 20.9 0.00 0.00 0.00 84 1008.3
20180122011345 1 25 9.7 16.1 0.00 0.00 0.00 84 1008.3
20180122010845 1 37 8.0 12.9 0.00 0.00 0.00 84 1008.4
20180122010345 1 31 11.3 20.9 0.00 0.00 0.00 85 1008.3
20180122005845 1 28 9.7 22.5 0.00 0.00 0.00 85 1008.4
20180122005345 1 15 9.7 19.3 0.00 0.00 0.00 84 1008.3
20180122004845 1 28 9.7 19.3 0.00 0.00 0.00 84 1008.2
20180122004345 1 42 9.7 16.1 0.00 0.00 0.00 83 1008.3
20180122003845 1 25 11.3 19.3 0.00 0.00 0.00 83 1008.3
20180122003345 1 24 11.3 24.1 0.00 0.00 0.00 82 1008.2
20180122002845 1 18 9.7 20.9 0.00 0.00 0.00 80 1008.2